Weather History for McCook, NE

Change the Weather History Date:

Monday, August 11, 2014

  Actual Average Record
Temperature  
Mean Temperature 72 °F 75 °F  
Max Temperature 85 °F 88 °F 108 °F (1936)
Min Temperature 58 °F 61 °F 46 °F (1931)
Cooling Degree Days 6    
Growing Degree Days 20 (Base 50)    
Moisture  
Dew Point 59 °F    
Average Humidity 70    
Maximum Humidity 97    
Minimum Humidity 41    
Precipitation  
Precipitation 0.00 in 0.12 in 3.11 in (1980)
Month to date precipitation 1.69 1.31  
Year to date precipitation 16.82 15.88  
Sea Level Pressure  
Sea Level Pressure 30.19 in    
Wind  
Wind Speed 4 mph (NE)    
Max Wind Speed 10 mph    
Max Gust Speed 16 mph    
Visibility 9 miles    
Events      
T = Trace of Precipitation, MM = Missing Value Source: NWS Daily Summary

Daily Weather History Graph

Daily Weather History Graph

Search for Another Location

Airport:

Trip Planner

Search our weather history database for the weather conditions in past years. The results will help you decide how hot, cold, wet, or windy it might be!

Date:

Astronomy

Aug. 11, 2014 Rise Set
Actual Time 6:49 AM CDT 8:44 PM CDT
Civil Twilight 6:20 AM CDT 9:13 PM CDT
Nautical Twilight 5:44 AM CDT 9:49 PM CDT
Astronomical Twilight 5:05 AM CDT 10:28 PM CDT
Moon 9:13 PM CDT (8/11) 7:57 AM CDT (8/11)
Length of Visible Light 14h 53m
Length of Day
13h 54m
Full, 99% of the Moon is Illuminated
Aug 11
Full
Aug 17
Last Quarter
Aug 25
New
Sep 2
First Quarter
Sep 8
Full

Hourly Weather History & Observations

Time (CDT) Temp. Heat Index Dew Point Humidity Pressure Visibility Wind Dir Wind Speed Gust Speed Precip Events Conditions
12:53 AM 64.0 °F - 62.1 °F 93% 30.18 in 10.0 mi WNW 3.5 mph - N/A   Clear
1:53 AM 62.1 °F - 60.1 °F 93% 30.18 in 10.0 mi Calm Calm - N/A   Clear
2:53 AM 61.0 °F - 59.0 °F 93% 30.17 in 10.0 mi East 3.5 mph - N/A   Clear
3:53 AM 61.0 °F - 59.0 °F 93% 30.17 in 10.0 mi NNW 3.5 mph - N/A   Clear
4:53 AM 61.0 °F - 59.0 °F 93% 30.18 in 9.0 mi Calm Calm - N/A   Clear
5:53 AM 59.0 °F - 57.9 °F 96% 30.19 in 6.0 mi NW 3.5 mph - N/A   Clear
6:53 AM 57.9 °F - 57.0 °F 97% 30.19 in 3.0 mi Calm Calm - N/A   Clear
7:53 AM 61.0 °F - 60.1 °F 97% 30.22 in 6.0 mi West 4.6 mph - N/A   Clear
8:53 AM 64.9 °F - 62.1 °F 90% 30.22 in 7.0 mi Calm Calm - N/A   Clear
9:53 AM 72.0 °F - 62.1 °F 71% 30.23 in 10.0 mi Calm Calm - N/A   Clear
10:21 AM 73.0 °F - 62.1 °F 68% 30.28 in 10.0 mi NE 4.6 mph - N/A   Partly Cloudy
10:53 AM 75.0 °F - 62.1 °F 64% 30.23 in 10.0 mi Calm Calm - N/A   Partly Cloudy
11:53 AM 78.1 °F - 62.1 °F 58% 30.23 in 10.0 mi ENE 6.9 mph - N/A   Mostly Cloudy
12:53 PM 78.1 °F - 61.0 °F 56% 30.23 in 10.0 mi ENE 5.8 mph - N/A   Scattered Clouds
1:53 PM 82.0 °F 82.7 °F 61.0 °F 49% 30.21 in 10.0 mi North 5.8 mph - N/A   Partly Cloudy
2:53 PM 82.9 °F 83.3 °F 61.0 °F 47% 30.19 in 10.0 mi North 9.2 mph 16.1 mph N/A   Scattered Clouds
3:53 PM 82.9 °F 82.6 °F 57.9 °F 42% 30.17 in 10.0 mi ENE 5.8 mph - N/A   Scattered Clouds
4:53 PM 82.9 °F 82.8 °F 59.0 °F 44% 30.15 in 10.0 mi NE 10.4 mph - N/A   Partly Cloudy
5:53 PM 84.0 °F 83.5 °F 57.9 °F 41% 30.14 in 10.0 mi NNW 6.9 mph - N/A   Scattered Clouds
6:53 PM 81.0 °F 81.6 °F 60.1 °F 49% 30.14 in 10.0 mi East 5.8 mph - N/A   Mostly Cloudy
7:53 PM 75.0 °F - 57.0 °F 53% 30.14 in 10.0 mi East 9.2 mph - N/A   Clear
8:53 PM 71.1 °F - 55.9 °F 59% 30.15 in 10.0 mi East 6.9 mph - N/A   Clear
9:53 PM 69.1 °F - 57.0 °F 65% 30.15 in 10.0 mi North - - N/A   Clear
10:53 PM 66.0 °F - 57.0 °F 73% 30.16 in 10.0 mi East 5.8 mph - N/A   Partly Cloudy
11:53 PM 64.9 °F - 57.0 °F 75% 30.17 in 10.0 mi ENE 4.6 mph - N/A   Overcast